AZU2735 SBCF-SBSL

Flight info

Callsign AZU2735
Flight time 2h 29m
Altitude 39000
Route PABES UZ4 TEGEP
Aircraft A20N/M-SDE2E3FGHIRWXY/LB1

Departure

Time 2026-04-23 19:07
Airport Tancredo Neves International Airport (SBCF)

Arrival

Time 2026-04-23 21:37
Airport Marechal Cunha Machado International Airport (SBSL)
Time Latitude Longitude Altitude Speed Heading
2026-04-23 18:43 -19.62902 -43.96780 2704 ft 0 kts 45°
2026-04-23 18:56 -19.62923 -43.96802 2701 ft 3 kts 45°
2026-04-23 18:56 -19.62944 -43.96812 2700 ft 3 kts 355°
2026-04-23 18:56 -19.62963 -43.96802 2699 ft 0 kts 313°
2026-04-23 19:01 -19.62943 -43.96823 2699 ft 7 kts 316°
2026-04-23 19:02 -19.62884 -43.96876 2701 ft 14 kts 320°
2026-04-23 19:02 -19.62819 -43.96960 2701 ft 15 kts 289°
2026-04-23 19:02 -19.62813 -43.97073 2698 ft 17 kts 237°
2026-04-23 19:02 -19.62811 -43.97162 2694 ft 13 kts 315°
2026-04-23 19:03 -19.62741 -43.97230 2695 ft 13 kts 319°
2026-04-23 19:03 -19.62675 -43.97290 2697 ft 11 kts 320°
2026-04-23 19:03 -19.62616 -43.97343 2699 ft 10 kts 320°
2026-04-23 19:03 -19.62563 -43.97392 2701 ft 9 kts 318°
2026-04-23 19:04 -19.62515 -43.97441 2701 ft 9 kts 315°
2026-04-23 19:04 -19.62462 -43.97490 2701 ft 10 kts 320°
2026-04-23 19:04 -19.62401 -43.97544 2700 ft 12 kts 320°
2026-04-23 19:04 -19.62325 -43.97611 2696 ft 16 kts 320°
2026-04-23 19:05 -19.62242 -43.97704 2691 ft 19 kts 290°
2026-04-23 19:05 -19.62287 -43.97783 2683 ft 0 kts 195°
2026-04-23 19:05 -19.62288 -43.97783 2683 ft 0 kts 195°
2026-04-23 19:05 -19.62305 -43.97786 2682 ft 4 kts 182°
2026-04-23 19:06 -19.62344 -43.97787 2681 ft 7 kts 181°
2026-04-23 19:06 -19.62400 -43.97774 2681 ft 7 kts 154°
2026-04-23 19:06 -19.62411 -43.97766 2682 ft 0 kts 136°
2026-04-23 19:06 -19.62567 -43.97617 2689 ft 62 kts 138°
2026-04-23 19:07 -19.63057 -43.97162 2679 ft 122 kts 139°
2026-04-23 19:07 -19.63837 -43.96447 2695 ft 168 kts 137°
2026-04-23 19:07 -19.64766 -43.95591 3012 ft 180 kts 139°
2026-04-23 19:07 -19.65697 -43.94699 3568 ft 183 kts 135°
2026-04-23 19:08 -19.66644 -43.93823 4234 ft 180 kts 137°
2026-04-23 19:08 -19.67594 -43.92963 4667 ft 185 kts 138°
2026-04-23 19:08 -19.68622 -43.92053 4929 ft 200 kts 143°
2026-04-23 19:08 -19.69992 -43.91547 5181 ft 218 kts 175°
2026-04-23 19:09 -19.71511 -43.91904 5462 ft 235 kts 207°
2026-04-23 19:09 -19.72709 -43.93115 5825 ft 248 kts 235°
2026-04-23 19:09 -19.73583 -43.94685 6499 ft 247 kts 251°
2026-04-23 19:09 -19.73705 -43.96475 7160 ft 245 kts 285°
2026-04-23 19:10 -19.72937 -43.98029 7739 ft 244 kts 317°
2026-04-23 19:10 -19.71522 -43.98971 8324 ft 243 kts 342°
2026-04-23 19:10 -19.69895 -43.99546 8942 ft 246 kts 343°
2026-04-23 19:10 -19.68276 -44.00119 9549 ft 249 kts 343°
2026-04-23 19:11 -19.66616 -44.00728 10173 ft 252 kts 342°
2026-04-23 19:11 -19.64956 -44.01351 10784 ft 255 kts 342°
2026-04-23 19:11 -19.63288 -44.01985 11381 ft 257 kts 342°
2026-04-23 19:11 -19.61615 -44.02626 11957 ft 259 kts 342°
2026-04-23 19:12 -19.59895 -44.03285 12528 ft 262 kts 342°
2026-04-23 19:12 -19.58197 -44.03936 13062 ft 264 kts 342°
2026-04-23 19:12 -19.56446 -44.04606 13595 ft 267 kts 342°
2026-04-23 19:12 -19.54676 -44.05264 14071 ft 272 kts 343°
2026-04-23 19:13 -19.52829 -44.05911 14335 ft 287 kts 343°
2026-04-23 19:13 -19.50882 -44.06587 14637 ft 299 kts 343°
2026-04-23 19:13 -19.48873 -44.07287 14888 ft 314 kts 343°
2026-04-23 19:13 -19.46720 -44.08040 15147 ft 329 kts 342°
2026-04-23 19:14 -19.44499 -44.08818 15399 ft 343 kts 342°
2026-04-23 19:14 -19.42192 -44.09646 15634 ft 357 kts 341°
2026-04-23 19:14 -19.39798 -44.10526 15860 ft 371 kts 341°
2026-04-23 19:14 -19.37303 -44.11446 16076 ft 383 kts 341°
2026-04-23 19:15 -19.34756 -44.12382 16383 ft 392 kts 341°
2026-04-23 19:15 -19.32168 -44.13332 16847 ft 396 kts 340°
2026-04-23 19:15 -19.29510 -44.14137 17334 ft 398 kts 351°
2026-04-23 19:15 -19.26736 -44.14213 17806 ft 401 kts
2026-04-23 19:16 -19.24023 -44.13526 18235 ft 404 kts 19°
2026-04-23 19:16 -19.21373 -44.12453 18676 ft 407 kts 21°
2026-04-23 19:16 -19.18726 -44.11341 19083 ft 411 kts 21°
2026-04-23 19:17 -19.13379 -44.09107 19876 ft 418 kts 21°
2026-04-23 19:17 -19.10635 -44.07973 20286 ft 421 kts 21°
2026-04-23 19:17 -19.07894 -44.06845 20686 ft 424 kts 21°
2026-04-23 19:17 -19.05148 -44.05718 21071 ft 427 kts 21°
2026-04-23 19:18 -19.02364 -44.04578 21460 ft 430 kts 21°
2026-04-23 19:18 -18.99545 -44.03423 21853 ft 432 kts 21°
2026-04-23 19:18 -18.96743 -44.02277 22235 ft 434 kts 21°
2026-04-23 19:18 -18.93920 -44.01121 22635 ft 436 kts 21°
2026-04-23 19:19 -18.88218 -43.98780 23374 ft 442 kts 22°
2026-04-23 19:19 -18.85343 -43.97597 23732 ft 445 kts 22°
2026-04-23 19:20 -18.79530 -43.95209 24446 ft 450 kts 22°
2026-04-23 19:20 -18.76606 -43.94009 24800 ft 452 kts 22°
2026-04-23 19:20 -18.73656 -43.92798 25151 ft 455 kts 21°
2026-04-23 19:20 -18.70699 -43.91585 25479 ft 457 kts 21°
2026-04-23 19:21 -18.67728 -43.90366 25821 ft 459 kts 21°
2026-04-23 19:21 -18.61720 -43.87906 26483 ft 464 kts 21°
2026-04-23 19:21 -18.58710 -43.86672 26812 ft 466 kts 22°
2026-04-23 19:22 -18.55666 -43.85426 27129 ft 468 kts 22°
2026-04-23 19:22 -18.52651 -43.84191 27425 ft 470 kts 21°
2026-04-23 19:22 -18.46533 -43.81687 28017 ft 474 kts 21°
2026-04-23 19:23 -18.43428 -43.80418 28301 ft 476 kts 21°
2026-04-23 19:23 -18.40354 -43.79161 28590 ft 478 kts 21°
2026-04-23 19:23 -18.37221 -43.77881 28859 ft 480 kts 21°
2026-04-23 19:24 -18.30965 -43.75327 29390 ft 483 kts 22°
2026-04-23 19:24 -18.27824 -43.74045 29744 ft 482 kts 22°
2026-04-23 19:24 -18.21618 -43.71514 30515 ft 479 kts 22°
2026-04-23 19:25 -18.15304 -43.69315 31240 ft 478 kts 14°
2026-04-23 19:25 -18.08725 -43.68209 31957 ft 477 kts
2026-04-23 19:26 -18.02101 -43.68265 32552 ft 477 kts 355°
2026-04-23 19:26 -17.98791 -43.68689 32848 ft 477 kts 353°
2026-04-23 19:27 -17.92225 -43.69669 33516 ft 476 kts 353°
2026-04-23 19:27 -17.82411 -43.71134 34495 ft 471 kts 353°
2026-04-23 19:28 -17.75919 -43.72087 35113 ft 468 kts 353°
2026-04-23 19:28 -17.69478 -43.73031 35713 ft 464 kts 353°
2026-04-23 19:29 -17.66308 -43.73494 35942 ft 463 kts 353°
2026-04-23 19:29 -17.59893 -43.74430 36339 ft 463 kts 353°
2026-04-23 19:30 -17.53523 -43.75360 36718 ft 462 kts 353°
2026-04-23 19:30 -17.50355 -43.75822 36907 ft 461 kts 353°
2026-04-23 19:30 -17.43989 -43.76751 37285 ft 460 kts 354°
2026-04-23 19:31 -17.40816 -43.77214 37428 ft 460 kts 354°
2026-04-23 19:31 -17.37642 -43.77676 37535 ft 460 kts 354°
2026-04-23 19:31 -17.34461 -43.78139 37648 ft 461 kts 354°
2026-04-23 19:32 -17.28098 -43.79064 37848 ft 461 kts 353°
2026-04-23 19:32 -17.24901 -43.79529 37951 ft 461 kts 353°
2026-04-23 19:32 -17.21730 -43.79990 38039 ft 462 kts 353°
2026-04-23 19:33 -17.15317 -43.80925 38189 ft 463 kts 354°
2026-04-23 19:33 -17.05740 -43.82317 38372 ft 465 kts 354°
2026-04-23 19:34 -16.99324 -43.83248 38528 ft 464 kts 354°
2026-04-23 19:34 -16.92909 -43.84179 38685 ft 464 kts 354°
2026-04-23 19:35 -16.89716 -43.84640 38756 ft 464 kts 354°
2026-04-23 19:35 -16.83301 -43.85567 38828 ft 464 kts 353°
2026-04-23 19:36 -16.76887 -43.86497 38889 ft 465 kts 354°
2026-04-23 19:36 -16.70435 -43.87432 38933 ft 466 kts 354°
2026-04-23 19:37 -16.63998 -43.88363 39011 ft 467 kts 354°
2026-04-23 19:37 -16.57576 -43.89291 39097 ft 466 kts 354°
2026-04-23 19:38 -16.51153 -43.90219 39093 ft 467 kts 354°
2026-04-23 19:38 -16.44706 -43.91149 39087 ft 467 kts 354°
2026-04-23 19:39 -16.38231 -43.92084 39080 ft 467 kts 354°
2026-04-23 19:39 -16.31778 -43.93015 39075 ft 467 kts 354°
2026-04-23 19:40 -16.25347 -43.93941 39070 ft 467 kts 354°
2026-04-23 19:40 -16.18905 -43.94869 39064 ft 467 kts 354°
2026-04-23 19:41 -16.12444 -43.95799 39067 ft 467 kts 354°
2026-04-23 19:41 -16.05978 -43.96727 39066 ft 467 kts 354°
2026-04-23 19:42 -15.99539 -43.97654 39064 ft 467 kts 354°
2026-04-23 19:42 -15.93081 -43.98583 39066 ft 468 kts 354°
2026-04-23 19:43 -15.86616 -43.99511 39073 ft 468 kts 354°
2026-04-23 19:43 -15.80163 -44.00438 39069 ft 467 kts 354°
2026-04-23 19:44 -15.73736 -44.01359 39069 ft 466 kts 354°
2026-04-23 19:44 -15.67259 -44.02287 39063 ft 466 kts 354°
2026-04-23 19:45 -15.60841 -44.03204 39061 ft 466 kts 354°
2026-04-23 19:45 -15.54401 -44.04124 39054 ft 466 kts 354°
2026-04-23 19:46 -15.47949 -44.05046 39048 ft 466 kts 355°
2026-04-23 19:46 -15.41550 -44.05959 39030 ft 465 kts 355°
2026-04-23 19:47 -15.35135 -44.06874 39021 ft 465 kts 355°
2026-04-23 19:47 -15.28684 -44.07795 39017 ft 465 kts 355°
2026-04-23 19:48 -15.22313 -44.08706 39008 ft 464 kts 355°
2026-04-23 19:48 -15.15863 -44.09622 39009 ft 463 kts 356°
2026-04-23 19:49 -15.09470 -44.10099 39004 ft 460 kts
2026-04-23 19:49 -15.03068 -44.10180 39010 ft 461 kts
2026-04-23 19:50 -14.96622 -44.10251 39003 ft 460 kts
2026-04-23 19:50 -14.90214 -44.10326 39002 ft 460 kts
2026-04-23 19:51 -14.83787 -44.10403 39001 ft 459 kts
2026-04-23 19:51 -14.77382 -44.10479 38997 ft 459 kts
2026-04-23 19:52 -14.70997 -44.10556 38996 ft 459 kts
2026-04-23 19:52 -14.64617 -44.10633 38993 ft 459 kts
2026-04-23 19:53 -14.58191 -44.10710 38991 ft 459 kts
2026-04-23 19:53 -14.51813 -44.10786 38991 ft 459 kts
2026-04-23 19:54 -14.45418 -44.10863 38991 ft 459 kts
2026-04-23 19:54 -14.39016 -44.10939 38986 ft 459 kts
2026-04-23 19:55 -14.32610 -44.11018 38982 ft 459 kts
2026-04-23 19:55 -14.26222 -44.11095 38975 ft 458 kts
2026-04-23 19:56 -14.19832 -44.11172 38974 ft 458 kts
2026-04-23 19:56 -14.13463 -44.11251 38978 ft 459 kts
2026-04-23 19:57 -14.07059 -44.11330 38981 ft 458 kts
2026-04-23 19:57 -14.00668 -44.11411 38983 ft 458 kts
2026-04-23 19:58 -13.94287 -44.11492 38989 ft 458 kts
2026-04-23 19:58 -13.87862 -44.11572 38991 ft 459 kts
2026-04-23 19:59 -13.81453 -44.11650 38995 ft 459 kts
2026-04-23 19:59 -13.75094 -44.11729 39000 ft 459 kts
2026-04-23 20:00 -13.68680 -44.11809 39001 ft 459 kts
2026-04-23 20:00 -13.62268 -44.11890 39003 ft 458 kts
2026-04-23 20:01 -13.55877 -44.11969 39000 ft 459 kts
2026-04-23 20:01 -13.49465 -44.12048 38999 ft 460 kts
2026-04-23 20:02 -13.43075 -44.12128 38995 ft 460 kts
2026-04-23 20:02 -13.36667 -44.12208 38987 ft 460 kts
2026-04-23 20:03 -13.30248 -44.12287 38983 ft 461 kts
2026-04-23 20:03 -13.23812 -44.12371 38983 ft 462 kts
2026-04-23 20:04 -13.17367 -44.12463 38986 ft 462 kts
2026-04-23 20:04 -13.10926 -44.12554 38986 ft 462 kts
2026-04-23 20:05 -13.04488 -44.12645 38989 ft 461 kts
2026-04-23 20:05 -12.98047 -44.12734 38999 ft 462 kts
2026-04-23 20:06 -12.91621 -44.12817 39002 ft 461 kts
2026-04-23 20:06 -12.85183 -44.12845 39000 ft 461 kts
2026-04-23 20:07 -12.78731 -44.12868 39000 ft 461 kts
2026-04-23 20:07 -12.72276 -44.12897 39003 ft 462 kts
2026-04-23 20:08 -12.65867 -44.12926 39004 ft 462 kts
2026-04-23 20:08 -12.59428 -44.12971 39006 ft 461 kts
2026-04-23 20:09 -12.52993 -44.13050 39006 ft 461 kts
2026-04-23 20:09 -12.46544 -44.13131 39008 ft 461 kts
2026-04-23 20:10 -12.40144 -44.13207 39010 ft 461 kts
2026-04-23 20:10 -12.33714 -44.13282 39013 ft 461 kts
2026-04-23 20:11 -12.27288 -44.13359 39014 ft 461 kts
2026-04-23 20:11 -12.20861 -44.13435 39013 ft 461 kts
2026-04-23 20:12 -12.14404 -44.13509 39006 ft 461 kts
2026-04-23 20:12 -12.08019 -44.13580 38997 ft 461 kts
2026-04-23 20:13 -12.01561 -44.13652 38987 ft 461 kts
2026-04-23 20:13 -11.95144 -44.13724 38979 ft 460 kts
2026-04-23 20:14 -11.88723 -44.13796 38973 ft 460 kts
2026-04-23 20:14 -11.82338 -44.13869 38967 ft 459 kts
2026-04-23 20:15 -11.75934 -44.13940 38961 ft 458 kts
2026-04-23 20:15 -11.69556 -44.14012 38958 ft 458 kts
2026-04-23 20:16 -11.63149 -44.14085 38956 ft 458 kts
2026-04-23 20:16 -11.56797 -44.14156 38956 ft 458 kts
2026-04-23 20:17 -11.50399 -44.14229 38955 ft 457 kts
2026-04-23 20:17 -11.44036 -44.14301 38955 ft 457 kts
2026-04-23 20:18 -11.37671 -44.14373 38954 ft 456 kts
2026-04-23 20:18 -11.31300 -44.14444 38954 ft 456 kts
2026-04-23 20:19 -11.24934 -44.14518 38954 ft 456 kts
2026-04-23 20:19 -11.18571 -44.14588 38954 ft 456 kts
2026-04-23 20:20 -11.12225 -44.14661 38958 ft 456 kts
2026-04-23 20:20 -11.05861 -44.14728 38961 ft 455 kts
2026-04-23 20:21 -10.99530 -44.14794 38963 ft 455 kts
2026-04-23 20:21 -10.93187 -44.14862 38964 ft 454 kts
2026-04-23 20:22 -10.86830 -44.14932 38960 ft 453 kts
2026-04-23 20:22 -10.80464 -44.15005 38958 ft 454 kts
2026-04-23 20:23 -10.74162 -44.15078 38955 ft 454 kts
2026-04-23 20:23 -10.67838 -44.15149 38954 ft 452 kts
2026-04-23 20:24 -10.61543 -44.15224 38959 ft 451 kts
2026-04-23 20:24 -10.55224 -44.15299 38962 ft 450 kts
2026-04-23 20:25 -10.48980 -44.15367 38968 ft 450 kts
2026-04-23 20:25 -10.42713 -44.15437 38970 ft 449 kts
2026-04-23 20:26 -10.36439 -44.15506 38968 ft 449 kts
2026-04-23 20:26 -10.30151 -44.15573 38964 ft 450 kts
2026-04-23 20:27 -10.23888 -44.15645 38960 ft 450 kts
2026-04-23 20:27 -10.17636 -44.15715 38957 ft 449 kts
2026-04-23 20:28 -10.11366 -44.15785 38956 ft 448 kts
2026-04-23 20:28 -10.05128 -44.15851 38947 ft 449 kts
2026-04-23 20:29 -9.98858 -44.15922 38942 ft 449 kts
2026-04-23 20:29 -9.92622 -44.15994 38953 ft 449 kts
2026-04-23 20:30 -9.86312 -44.16064 38958 ft 449 kts
2026-04-23 20:30 -9.76953 -44.16165 38972 ft 448 kts
2026-04-23 20:31 -9.70681 -44.16232 38974 ft 448 kts
2026-04-23 20:31 -9.64460 -44.16299 38969 ft 448 kts
2026-04-23 20:32 -9.58206 -44.16369 38957 ft 448 kts
2026-04-23 20:32 -9.51970 -44.16438 38950 ft 448 kts
2026-04-23 20:33 -9.45693 -44.16508 38943 ft 448 kts
2026-04-23 20:33 -9.39489 -44.16576 38941 ft 447 kts
2026-04-23 20:34 -9.33247 -44.16642 38936 ft 448 kts
2026-04-23 20:34 -9.26986 -44.16710 38932 ft 448 kts
2026-04-23 20:35 -9.20745 -44.16777 38925 ft 448 kts 360°
2026-04-23 20:35 -9.14494 -44.16845 38923 ft 447 kts 360°
2026-04-23 20:36 -9.08248 -44.16914 38918 ft 447 kts 360°
2026-04-23 20:36 -9.02023 -44.16983 38905 ft 447 kts 360°
2026-04-23 20:37 -8.95796 -44.17051 38901 ft 447 kts 360°
2026-04-23 20:37 -8.89543 -44.17119 38901 ft 448 kts 360°
2026-04-23 20:38 -8.83290 -44.17185 38900 ft 448 kts 360°
2026-04-23 20:38 -8.77053 -44.17253 38903 ft 448 kts 360°
2026-04-23 20:39 -8.70779 -44.17322 38898 ft 448 kts 360°
2026-04-23 20:39 -8.64574 -44.17390 38902 ft 447 kts 360°
2026-04-23 20:40 -8.58321 -44.17459 38897 ft 447 kts 360°
2026-04-23 20:40 -8.52103 -44.17528 38902 ft 448 kts 360°
2026-04-23 20:41 -8.45852 -44.17596 38909 ft 448 kts 359°
2026-04-23 20:41 -8.39609 -44.17665 38919 ft 448 kts 359°
2026-04-23 20:42 -8.33354 -44.17733 38923 ft 448 kts 359°
2026-04-23 20:42 -8.27105 -44.17802 38926 ft 448 kts 359°
2026-04-23 20:43 -8.20854 -44.17872 38927 ft 448 kts 359°
2026-04-23 20:43 -8.14596 -44.17941 38934 ft 448 kts 359°
2026-04-23 20:44 -8.08349 -44.18010 38938 ft 449 kts 360°
2026-04-23 20:44 -8.02120 -44.18077 38942 ft 448 kts 359°
2026-04-23 20:45 -7.95842 -44.18147 38946 ft 448 kts 359°
2026-04-23 20:45 -7.89582 -44.18216 38948 ft 448 kts 359°
2026-04-23 20:46 -7.83316 -44.18285 38946 ft 448 kts 359°
2026-04-23 20:46 -7.77082 -44.18353 38947 ft 449 kts 360°
2026-04-23 20:47 -7.70839 -44.18420 38944 ft 448 kts 360°
2026-04-23 20:47 -7.64561 -44.18488 38940 ft 449 kts 359°
2026-04-23 20:48 -7.58328 -44.18555 38935 ft 449 kts 359°
2026-04-23 20:48 -7.52069 -44.18624 38930 ft 449 kts 359°
2026-04-23 20:49 -7.45798 -44.18694 38930 ft 448 kts 359°
2026-04-23 20:49 -7.39570 -44.18763 38924 ft 449 kts 359°
2026-04-23 20:50 -7.33276 -44.18832 38919 ft 449 kts 360°
2026-04-23 20:50 -7.27022 -44.18900 38915 ft 450 kts 359°
2026-04-23 20:51 -7.20767 -44.18967 38912 ft 449 kts 359°
2026-04-23 20:51 -7.14505 -44.19036 38899 ft 449 kts 359°
2026-04-23 20:52 -7.08204 -44.19106 38891 ft 449 kts 359°
2026-04-23 20:52 -7.01955 -44.19176 38881 ft 450 kts 359°
2026-04-23 20:53 -6.95673 -44.19244 38872 ft 451 kts 360°
2026-04-23 20:53 -6.89358 -44.19308 38873 ft 451 kts 360°
2026-04-23 20:54 -6.83073 -44.19371 38872 ft 450 kts 360°
2026-04-23 20:54 -6.76793 -44.19435 38878 ft 449 kts 360°
2026-04-23 20:55 -6.70530 -44.19499 38876 ft 450 kts 360°
2026-04-23 20:55 -6.64253 -44.19564 38881 ft 451 kts 360°
2026-04-23 20:56 -6.57992 -44.19630 38882 ft 450 kts 360°
2026-04-23 20:56 -6.51720 -44.19695 38887 ft 450 kts
2026-04-23 20:57 -6.45416 -44.19759 38893 ft 450 kts 360°
2026-04-23 20:57 -6.39134 -44.19825 38904 ft 449 kts
2026-04-23 20:58 -6.32898 -44.19888 38904 ft 450 kts 360°
2026-04-23 20:58 -6.26602 -44.19953 38907 ft 451 kts 360°
2026-04-23 20:59 -6.20318 -44.20020 38906 ft 451 kts
2026-04-23 20:59 -6.14027 -44.20086 38894 ft 451 kts
2026-04-23 21:00 -6.07733 -44.20150 38887 ft 450 kts
2026-04-23 21:00 -6.01448 -44.20216 38879 ft 450 kts
2026-04-23 21:01 -5.95167 -44.20283 38875 ft 450 kts
2026-04-23 21:01 -5.88894 -44.20349 38876 ft 450 kts
2026-04-23 21:02 -5.82620 -44.20418 38874 ft 450 kts
2026-04-23 21:02 -5.76315 -44.20489 38873 ft 450 kts
2026-04-23 21:03 -5.70030 -44.20559 38874 ft 451 kts 360°
2026-04-23 21:03 -5.63731 -44.20630 38875 ft 452 kts 360°
2026-04-23 21:04 -5.57414 -44.20701 38874 ft 452 kts 360°
2026-04-23 21:04 -5.51134 -44.20772 38874 ft 452 kts 360°
2026-04-23 21:05 -5.44803 -44.20844 38873 ft 452 kts 360°
2026-04-23 21:05 -5.38505 -44.20914 38875 ft 452 kts 359°
2026-04-23 21:06 -5.32193 -44.20985 38877 ft 452 kts 359°
2026-04-23 21:06 -5.25926 -44.21056 38878 ft 452 kts 359°
2026-04-23 21:07 -5.19590 -44.21127 38878 ft 452 kts 359°
2026-04-23 21:07 -5.13280 -44.21199 38877 ft 452 kts 359°
2026-04-23 21:08 -5.07013 -44.21270 38876 ft 451 kts 359°
2026-04-23 21:08 -5.00709 -44.21341 38877 ft 451 kts 359°
2026-04-23 21:09 -4.94444 -44.21410 38875 ft 451 kts 359°
2026-04-23 21:09 -4.88136 -44.21481 38872 ft 451 kts 359°
2026-04-23 21:10 -4.81834 -44.21551 38869 ft 451 kts 359°
2026-04-23 21:10 -4.75553 -44.21622 38866 ft 451 kts 359°
2026-04-23 21:11 -4.69254 -44.21693 38869 ft 450 kts 359°
2026-04-23 21:11 -4.63014 -44.21763 38872 ft 449 kts 359°
2026-04-23 21:12 -4.59861 -44.21799 38425 ft 453 kts 359°
2026-04-23 21:12 -4.56714 -44.21836 37604 ft 454 kts 360°
2026-04-23 21:12 -4.53550 -44.21873 36849 ft 453 kts 360°
2026-04-23 21:12 -4.50389 -44.21909 36047 ft 452 kts 360°
2026-04-23 21:13 -4.47249 -44.21944 35275 ft 452 kts
2026-04-23 21:13 -4.44105 -44.21979 34517 ft 451 kts
2026-04-23 21:13 -4.40974 -44.22015 33762 ft 450 kts
2026-04-23 21:13 -4.37826 -44.22050 32991 ft 449 kts
2026-04-23 21:14 -4.34688 -44.22085 32261 ft 451 kts
2026-04-23 21:14 -4.31551 -44.22120 31485 ft 452 kts
2026-04-23 21:14 -4.28403 -44.22155 30673 ft 454 kts
2026-04-23 21:14 -4.25222 -44.22192 29815 ft 457 kts
2026-04-23 21:15 -4.22021 -44.22228 28923 ft 460 kts
2026-04-23 21:15 -4.18841 -44.22263 28137 ft 461 kts
2026-04-23 21:15 -4.15639 -44.22298 27575 ft 456 kts
2026-04-23 21:15 -4.12482 -44.22333 27028 ft 452 kts
2026-04-23 21:16 -4.09342 -44.22367 26482 ft 447 kts
2026-04-23 21:16 -4.06224 -44.22401 25937 ft 444 kts
2026-04-23 21:16 -4.03176 -44.22434 25401 ft 440 kts
2026-04-23 21:16 -4.00087 -44.22467 24854 ft 436 kts
2026-04-23 21:17 -3.97054 -44.22500 24316 ft 433 kts
2026-04-23 21:17 -3.94047 -44.22533 23775 ft 431 kts
2026-04-23 21:17 -3.91075 -44.22565 23249 ft 428 kts
2026-04-23 21:17 -3.88106 -44.22596 22719 ft 425 kts
2026-04-23 21:18 -3.85115 -44.22628 22182 ft 423 kts
2026-04-23 21:18 -3.82148 -44.22659 21656 ft 420 kts
2026-04-23 21:18 -3.79211 -44.22690 21124 ft 418 kts
2026-04-23 21:18 -3.76305 -44.22722 20593 ft 415 kts
2026-04-23 21:19 -3.73418 -44.22754 20064 ft 412 kts
2026-04-23 21:19 -3.70558 -44.22785 19534 ft 410 kts
2026-04-23 21:19 -3.67728 -44.22816 19010 ft 406 kts
2026-04-23 21:19 -3.64900 -44.22847 18478 ft 403 kts
2026-04-23 21:20 -3.62119 -44.22876 17939 ft 401 kts
2026-04-23 21:20 -3.59312 -44.22908 17376 ft 399 kts
2026-04-23 21:20 -3.56561 -44.22941 16832 ft 396 kts
2026-04-23 21:20 -3.53779 -44.22973 16283 ft 394 kts
2026-04-23 21:21 -3.51067 -44.23004 15750 ft 391 kts
2026-04-23 21:21 -3.48348 -44.23036 15211 ft 389 kts
2026-04-23 21:21 -3.45648 -44.23069 14677 ft 386 kts
2026-04-23 21:21 -3.42971 -44.23102 14146 ft 383 kts
2026-04-23 21:22 -3.40304 -44.23133 13612 ft 381 kts
2026-04-23 21:22 -3.37634 -44.23166 13077 ft 378 kts
2026-04-23 21:22 -3.35031 -44.23196 12556 ft 376 kts
2026-04-23 21:22 -3.32401 -44.23228 12037 ft 373 kts
2026-04-23 21:23 -3.29831 -44.23258 11526 ft 370 kts
2026-04-23 21:23 -3.27231 -44.23355 10999 ft 369 kts 356°
2026-04-23 21:23 -3.24751 -44.23828 10654 ft 362 kts 346°
2026-04-23 21:23 -3.22381 -44.24651 10461 ft 351 kts 341°
2026-04-23 21:24 -3.20156 -44.25524 10250 ft 340 kts 341°
2026-04-23 21:24 -3.17979 -44.26392 10075 ft 328 kts 341°
2026-04-23 21:24 -3.15896 -44.27222 9954 ft 315 kts 341°
2026-04-23 21:24 -3.13880 -44.28022 9810 ft 304 kts 341°
2026-04-23 21:25 -3.11915 -44.28797 9418 ft 303 kts 341°
2026-04-23 21:25 -3.09956 -44.29567 9040 ft 301 kts 341°
2026-04-23 21:25 -3.08064 -44.30311 8683 ft 288 kts 341°
2026-04-23 21:25 -3.06223 -44.31037 8341 ft 274 kts 341°
2026-04-23 21:26 -3.04497 -44.31717 8026 ft 262 kts 342°
2026-04-23 21:26 -3.02796 -44.32384 7718 ft 259 kts 342°
2026-04-23 21:26 -3.01111 -44.33045 7415 ft 257 kts 342°
2026-04-23 21:26 -2.99461 -44.33692 7115 ft 254 kts 342°
2026-04-23 21:27 -2.97816 -44.34335 6818 ft 252 kts 342°
2026-04-23 21:27 -2.96187 -44.34974 6519 ft 250 kts 342°
2026-04-23 21:27 -2.94582 -44.35604 6222 ft 248 kts 342°
2026-04-23 21:27 -2.92959 -44.36240 5923 ft 246 kts 342°
2026-04-23 21:28 -2.91386 -44.36857 5633 ft 244 kts 342°
2026-04-23 21:28 -2.89800 -44.37481 5342 ft 242 kts 342°
2026-04-23 21:28 -2.88239 -44.38092 5057 ft 240 kts 342°
2026-04-23 21:28 -2.86692 -44.38699 4771 ft 238 kts 342°
2026-04-23 21:29 -2.85138 -44.39309 4486 ft 236 kts 342°
2026-04-23 21:29 -2.83608 -44.39909 4204 ft 234 kts 342°
2026-04-23 21:29 -2.82124 -44.40491 4062 ft 224 kts 344°
2026-04-23 21:29 -2.80656 -44.40652 4000 ft 203 kts 17°
2026-04-23 21:30 -2.79408 -44.40146 3978 ft 183 kts 34°
2026-04-23 21:30 -2.78412 -44.39454 3816 ft 163 kts 40°
2026-04-23 21:30 -2.77575 -44.38788 3654 ft 143 kts 43°
2026-04-23 21:30 -2.76846 -44.38192 3543 ft 132 kts 43°
2026-04-23 21:31 -2.76132 -44.37605 3471 ft 132 kts 43°
2026-04-23 21:31 -2.75414 -44.37017 3388 ft 132 kts 43°
2026-04-23 21:31 -2.74702 -44.36437 3295 ft 132 kts 43°
2026-04-23 21:31 -2.73996 -44.35864 3200 ft 131 kts 42°
2026-04-23 21:32 -2.73278 -44.35283 3098 ft 131 kts 42°
2026-04-23 21:32 -2.72567 -44.34709 3006 ft 130 kts 42°
2026-04-23 21:32 -2.71855 -44.34135 3025 ft 131 kts 42°
2026-04-23 21:32 -2.71140 -44.33559 2905 ft 131 kts 42°
2026-04-23 21:33 -2.70427 -44.32985 2735 ft 130 kts 42°
2026-04-23 21:33 -2.69725 -44.32420 2567 ft 130 kts 42°
2026-04-23 21:33 -2.69013 -44.31847 2400 ft 130 kts 42°
2026-04-23 21:33 -2.68313 -44.31283 2229 ft 129 kts 41°
2026-04-23 21:34 -2.67613 -44.30720 2065 ft 129 kts 42°
2026-04-23 21:34 -2.66906 -44.30150 1897 ft 129 kts 41°
2026-04-23 21:34 -2.66217 -44.29594 1736 ft 128 kts 41°
2026-04-23 21:34 -2.65513 -44.29026 1564 ft 128 kts 41°
2026-04-23 21:35 -2.64819 -44.28466 1401 ft 128 kts 41°
2026-04-23 21:35 -2.64126 -44.27908 1238 ft 128 kts 41°
2026-04-23 21:35 -2.63422 -44.27341 1075 ft 129 kts 41°
2026-04-23 21:35 -2.62715 -44.26770 909 ft 130 kts 40°
2026-04-23 21:36 -2.61305 -44.25634 575 ft 131 kts 40°
2026-04-23 21:36 -2.60586 -44.25064 380 ft 131 kts 41°
2026-04-23 21:36 -2.59878 -44.24482 220 ft 132 kts 40°
2026-04-23 21:37 -2.59191 -44.23922 163 ft 110 kts 39°
2026-04-23 21:37 -2.58719 -44.23547 154 ft 60 kts 39°
2026-04-23 21:37 -2.58527 -44.23392 149 ft 10 kts 39°
2026-04-23 21:37 -2.58520 -44.23387 149 ft 0 kts 32°
2026-04-23 21:38 -2.58501 -44.23402 149 ft 6 kts 314°
2026-04-23 21:38 -2.58463 -44.23443 150 ft 8 kts 308°
2026-04-23 21:38 -2.58448 -44.23497 151 ft 7 kts 263°
2026-04-23 21:38 -2.58440 -44.23540 152 ft 5 kts 319°
2026-04-23 21:39 -2.58414 -44.23554 152 ft 2 kts 337°
2026-04-23 21:39 -2.58409 -44.23556 152 ft 0 kts 336°